Weather in Sutka

Russia / Yaroslavl Oblast     58°20′29″N   37°32′36″E
temp.,
°C
wind,
m/s
gust,
m/s
humid.,
%
clouds,
%
prec.,
mm/h
press.,
hPa
HPBL,
m
13 june, sun
sun1300:00+13s239898 0.2 100650
03:00+12sw2398100 0.2 100553
06:00+14ssw149699 0.0 1005121
09:00+18ssw239012 1.2 1005328
12:00+21ssw236023 1.6 10061179
15:00+24sw344487 1.7 10051922
18:00+23sw244983 0.0 10061632
21:00+19ssw2376100 0.0 100769
14 june, mon
mon1400:00+18ssw257673 0.0 100896
03:00+17sw257238 0.0 1009112
06:00+17wsw2776100 0.0 1010221
09:00+20w2466100 0.0 1012363
12:00+21wnw3474100 0.9 1013801
15:00+21nw348226 2.9 1014810
18:00+22nw345710 0.1 10141110
21:00+16nw117753 0.1 101518
15 june, tue
tue1500:00+14nne1182100 0.0 101511
03:00+12n118676 0.0 101510
06:00+16sse117830 0.0 1015103
09:00+21ssw23555 0.0 1014873
12:00+24sw344911 0.0 10121611
15:00+25sw354674 0.0 10112083
18:00+22sw34653 0.3 1010840
21:00+17wsw23875 0.6 100952
16 june, wed
wed1600:00+17w248291 0.0 100987
03:00+14nw257981 0.0 1010103
06:00+14nnw498069 0.0 1011403
09:00+16nnw476599 0.0 1013611
12:00+21nw56412 0.0 10142016
15:00+22nw67295 0.0 10142547
18:00+21nw46355 0.0 10162409
21:00+16nw411537 0.0 1018440
17 june, thu
thu1700:00+11nw310655 0.0 1020202
03:00+9nw39675 0.0 1022180
06:00+12nw38620 0.0 1023228
09:00+18n34420 0.0 1024722
12:00+22n24314 0.0 10241748
15:00+24nw233216 0.0 10232009
18:00+23nw2341100 0.0 10241537
21:00+17wsw226171 0.0 102415